Content
SEND FEEDBACK

Daily
Averages
Monthly
Summary
Ireland

SWORDS, IRELAND


Home > Europe > Ireland
Elevation: 279 feet     Latitude: 53 25N     Longitude: 006 15W

WEATHER
 
SELECT A DAY
Number of Records: 329,473;   Date Range: 7/1/96 - 10/19/14
 
SHARE

PRINT THIS DATA

[ ← Previous Day ]
WEATHER ALMANAC - FEBRUARY 13, 2013
[ Next Day → ]
[ °C ]   °F
Weather ElementAverageHighLow
Temperature46.6 °F53.6 °F (3:30 pm)41 °F (12:00 am)
Dewpoint44.2 °F49 °F (6:00 pm)37.4 °F (2:00 am)
Humidity91 %100 % (6:30 am)82 % (3:30 pm)
Barometer29.78 in29.98 in (12:30 am)29.65 in (5:30 pm)
Wind Speed13.5 mph19.6 mph (10:30 pm)
Weather ElementAverage
Visibility5.4 mi
Wind DirectionS (183.9 °)

Weather ElementTotal
Precipitation---
Heating Degree Days17.7 (Base 65)
Averaged from 51 records on February 13, 2013
WEATHER CONDITIONS BREAKOUT
WIND DIRECTION BREAKOUT
WEATHER BY HOUR - FEBRUARY 13, 2013
[ °C ]   °F
Local TimeTemperatureDewpointHumidityBarometerVisibilityWind DirectionWind SpeedGust SpeedPrecipitationEventsConditions
12:00 AM41.0 °F39.2 °F93 %29.95 in2.5 miSSE (150°)11.5 mphMostly Cloudy
12:30 AM41.0 °F39.2 °F93 %29.98 in2.5 miSSE (150°)10.4 mphMostly Cloudy
1:00 AM41.0 °F39.2 °F93 %29.95 in3.1 miSE (140°)8.1 mphMostly Cloudy
1:30 AM41.0 °F39.2 °F93 %29.95 in4.3 miSE (140°)11.5 mphMostly Cloudy
2:00 AM41.0 °F37.4 °F87 %29.95 in6.2 miSE (140°)12.7 mphRainLight Rain
2:30 AM41.0 °F39.2 °F93 %29.95 in6.2 miSE (140°)11.5 mphRainLight Rain
3:00 AM41.0 °F39.2 °F93 %29.92 in3.7 miSE (140°)11.5 mphRainLight Rain
3:26 AM41.0 °F39.2 °F93 %29.92 in3.7 miSE (140°)11.5 mphRainLight Rain
4:00 AM41.0 °F39.2 °F93 %29.92 in3.7 miSSE (150°)12.7 mphRainLight Rain
4:30 AM41.0 °F39.2 °F93 %29.89 in3.7 miSSE (150°)12.7 mphRainLight Rain
5:00 AM41.0 °F39.2 °F93 %29.89 in3.7 miSE (140°)13.8 mphRainLight Rain
5:30 AM41.0 °F39.2 °F93 %29.89 in3.7 miSE (140°)12.7 mphRainLight Rain
6:00 AM41.0 °F39.2 °F93 %29.86 in4.3 miSSE (150°)10.4 mphRainLight Rain
6:00 AM41.0 °F40.0 °F94 %29.89 in4.0 miSSE (150°)8.9 mphRainLight Rain
6:30 AM41.0 °F41.0 °F100 %29.86 in4.3 miSSE (150°)9.2 mphRainLight Rain
7:00 AM42.8 °F41.0 °F93 %29.86 in4.3 miSE (140°)11.5 mphRainLight Rain
7:30 AM42.8 °F41.0 °F93 %29.86 in6.2 miSSE (150°)10.4 mphRainLight Rain
8:00 AM42.8 °F41.0 °F93 %29.83 in5.6 miSE (140°)11.5 mphRainLight Rain
8:30 AM42.8 °F41.0 °F93 %29.83 in5.0 miSSE (150°)11.5 mphRainLight Rain
9:00 AM42.8 °F42.8 °F100 %29.83 in3.1 miSE (140°)10.4 mphRainLight Rain
9:30 AM42.8 °F42.8 °F100 %29.83 in5.0 miSSE (150°)9.2 mphRainLight Rain
10:00 AM44.6 °F42.8 °F93 %29.80 in6.2 miSSE (150°)11.5 mphMostly Cloudy
10:30 AM44.6 °F42.8 °F93 %29.80 in6.2 miSSE (150°)10.4 mphLight Drizzle
11:00 AM46.4 °F44.6 °F93 %29.80 in6.2 miSSE (160°)8.1 mphLight Drizzle
11:30 AM48.2 °F46.4 °F93 %29.80 in6.2 miSouth (170°)8.1 mphMostly Cloudy
12:00 PM50.0 °F46.4 °F87 %29.80 in6.2 miSouth (190°)12.7 mphLight Drizzle
12:00 PM49.0 °F47.0 °F88 %29.80 in12.0 miSouth (190°)13.4 mphRainLight Drizzle
12:30 PM50.0 °F48.2 °F94 %29.77 in6.2 miSSW (200°)12.7 mphLight Drizzle
1:00 PM51.8 °F48.2 °F88 %29.77 in6.2 miSSW (210°)12.7 mphLight Drizzle
1:30 PM51.8 °F48.2 °F88 %29.74 in6.2 miSSW (210°)18.4 mphMostly Cloudy
2:00 PM51.8 °F48.2 °F88 %29.74 in6.2 miSSW (210°)18.4 mphMostly Cloudy
2:30 PM51.8 °F48.2 °F88 %29.71 in6.2 miSSW (200°)17.3 mphLight Drizzle
3:00 PM51.8 °F48.2 °F88 %29.71 in6.2 miSSW (210°)18.4 mphMostly Cloudy
3:30 PM53.6 °F48.2 °F82 %29.68 in6.2 miSSW (210°)15.0 mphMostly Cloudy
4:00 PM53.6 °F48.2 °F82 %29.68 in6.2 miSSW (210°)16.1 mphRainLight Rain
4:30 PM53.6 °F48.2 °F82 %29.68 in6.2 miSSW (210°)17.3 mphRainLight Rain
5:00 PM51.8 °F48.2 °F88 %29.68 in6.2 miSSW (210°)16.1 mphRainLight Rain
5:30 PM51.8 °F48.2 °F88 %29.65 in5.6 miSW (220°)18.4 mphRainLight Rain
6:00 PM51.8 °F48.2 °F88 %29.65 in6.2 miSW (220°)17.3 mphRainLight Rain
6:00 PM51.0 °F49.0 °F89 %29.67 in9.0 miSW (220°)17.9 mphRainLight Rain
6:30 PM51.8 °F48.2 °F88 %29.65 in3.7 miSW (220°)17.3 mphRainLight Rain
7:00 PM51.8 °F48.2 °F88 %29.65 in3.7 miSW (230°)18.4 mphRainLight Rain
7:30 PM50.0 °F48.2 °F94 %29.65 in6.2 miWSW (240°)17.3 mphRainLight Rain
8:00 PM50.0 °F48.2 °F94 %29.65 in6.2 miWSW (240°)15.0 mphRainLight Rain
8:30 PM50.0 °F46.4 °F87 %29.65 in6.2 miWSW (240°)15.0 mphRainLight Rain
9:00 PM50.0 °F46.4 °F87 %29.65 in6.2 miWSW (240°)13.8 mphMostly Cloudy
9:30 PM50.0 °F46.4 °F87 %29.65 in6.2 miSW (230°)12.7 mphMostly Cloudy
10:00 PM50.0 °F46.4 °F87 %29.65 in6.2 miSW (230°)16.1 mphMostly Cloudy
10:30 PM48.2 °F46.4 °F93 %29.65 in6.2 miSW (230°)19.6 mphLight Drizzle
11:00 PM48.2 °F46.4 °F93 %29.65 in6.2 miWSW (240°)15.0 mphMostly Cloudy
11:30 PM48.2 °F46.4 °F93 %29.65 in6.2 miWSW (250°)13.8 mphMostly Cloudy
Hourly data recorded from EIDW, located miles away from Swords, Ireland







STORIES FROM OUR PARTNERS